STARLINK-34012, 63926

Orbit data source: Space-Track

STARLINK-34012, 63926 is a payload satellite owned by SpaceX/Seattle (US) in LEO that was launched on Tue, 13 May 2025 UTC via an FALCON 9 launch vehicle from the Air Force Western Test Range (AFWTR). Payload-class satellites include a variety of spacecraft equipped with specific instruments for various scientific and technological missions. These include communications satellites like Starlink; space stations such as the ISS; scientific satellites like the Hubble; Earth observation satellites from companies like Planet Labs, Umbra, and HawkEye 360; GPS; miniature CubeSats for education and research; and military/defense satellites.

Loading next visibility...
Identifier
63926, 2025-098A
Orbit
LEO
Country
Flag of USUS
Related business
Manufacturer
SpaceX/Seattle
Mission
Operational Commercial Communications
Bus & Motor
STARLINK V2MO, Unknown motor
Mass
575 kg wet, ~530 kg dry
Launch date (UTC)
2025-05-13 (1 year ago)
Launch vehicle
FALCON 9
Launch site
Air Force Western Test Range (AFWTR)
Object type
Payload
Rocket body
Debris
Shape & HBR
Box + 2 Pan, 17.7 m
Radar Cross Section
36.964 m², Large (>1 m²)

Expand to show TLE details & history
Last TLE update: 1 day ago

TLE from 1 day ago
0 STARLINK-34012
1 63926U 25098A   26170.99418350  .00004120  00000-0  35280-3 0  9993
2 63926  70.0018  16.6370 0002961 266.0723  94.0098 14.98338645 61919
Epoch: 2026-06-19T23:51Z
TLE epoch observation values (Epoch: 2026-06-19T23:51:37.454Z)
Latitude
0.00002°
Longitude
110.51577°
Altitude
574.598 km
Speed
7.574 km/s
True Right ascension
01h 06m 32s
True Declination
0° 00' 00"
Sunlit
Object was in daylight at epoch
Visualization orbit readout
Latitude
Unknown
Longitude
Unknown
Altitude
Unknown
Speed
Unknown
Apparent Right ascension
Unknown
Apparent Declination
Unknown
Sunlit
N/A
Visualization observer readout
Local Sidereal Time
10:20:18
Azimuth
Unknown
Elevation
Unknown
Doppler factor
Unknown
Orbital elements
Apogee altitude
572.035 km
Perigee altitude
567.92 km
Semi-major axis
6,948.114 km
Eccentricity
0.0003
Inclination
70.0018°
RAAN
16.637°
Arg. of periapsis
266.0723°
True anomaly
94.04365°
Mean anomaly
94.0098°
Eccentric anomaly
94.02672°
Mean motion
3.74751 °/min
Orbital period
96.06 mins
BSTAR
0.0003528
Loading maneuver chart data...
Computing Atmospheric mass density...
Loading historical data...
Loading historical data...
Loading historical data...
Loading historical data...
Loading historical data...
Loading historical data...
Loading historical data...

Documentation

Showing up to 5 results
|